Location: Recife
(8.0585°S, 34.8848°W)
Time: 13:09:41
(UTC-03:00)

Tiros 1 - Pass Details

Date: 15 April 2026
Orbit: 618 x 648 km, 48.4° (Epoch: 11 May)

Event Time Altitude Azimuth Distance (km) Brightness Sun altitude
Rises 05:26:19 0° 191° (SSW) 2,901 10.3 0.3°
Reaches altitude 10° 05:29:41 10° 166° (SSE) 1,986 9.7 1.1°
Maximum altitude 05:32:05 14° 134° (SE) 1,728 9.9 1.7°
Drops below altitude 10° 05:34:28 10° 102° (ESE) 1,977 11.1 2.2°
Sets 05:37:48 0° 76° (ENE) 2,876 13.8 3.1°
